www.pogodaiklimat.ru

Погода и климат >> Архив погоды >> Россия >> Коми >> Объячево


ПОГОДА в Объячеве

  • Прогноз погоды в Объячеве
  • Монитор погоды в Объячеве

АРХИВ ПОГОДЫ в Объячеве

Время (UTC), дата Ветер
(напр.,м/с)
 
Видим.   Явления Облачность Т
(С)
Тd
(С)
f
(%)
Тe
(С)
Тes
(С)
Комфортность P
(гПа)
Po
(гПа)
Тmin
(С)
Tmax
(С)
R
(мм)
R24
(мм)
S
(см)
21 11.06 З 2 20 км {ливн. осадки} 6/3 600 м
[Cb cap Ac cuf]
+12.3 +9.1 81 +11 +11 1012.9 995.1
00 12.06 СЗ 3 20 км {ливн. осадки} 6/1 600 м
[Cu hum Ac cuf]
+11.4 +7.6 77 +10 +10 1013.2 995.3
03 12.06 СЗ 4 н/о н/о +9.1 +1.0 57 +7 +7 1013.3 995.2 +8.8 0.0
06 12.06 СЗ 6-12
{12}
50 км 8/8 1000 м
[Sc]
+9.5 -0.7 49 +6 +7 1013.7 995.6 +8.5
09 12.06 СЗ 6-12
{14}
50 км в посл. час ливневой дождь 9/9 600 м
[Cb cap]
+7.4 -2.3 50 +4 +4 1015.5 997.3
12 12.06 СЗ 5-11
{12}
20 км слаб. ливневой дождь 9/8 600 м
[Cb cap Cc]
+8.9 -0.7 51 +6 +7 1016.2 998.1
15 12.06 С 5-10
{12}
50 км в посл. час ливневой дождь 9/6 600 м
[Cb cap Ac trans]
+7.8 -0.3 57 +4 +5 1017.6 999.4 +9.8 0.3
18 12.06 СЗ 2 50 км {ливн. осадки} 1/0
[Ci fib]
+5.9 +0.8 70 +4 +4 1018.6 1000.3
21 12.06 штиль 0 20 км 3/0
[Ac trans]
+4.0 +0.5 78 1000.0 983.1
00 13.06 СЗ 2 50 км 4/0
[Ac trans]
+2.5 +0.4 86 -1 -1 1020.6 1002.0
03 13.06 С 4
{11}
10 км слаб. ливневой дождь 10/10 600 м
[Cb cap]
+4.3 -0.1 73 0 0 1021.4 1002.9 +2.3 0.0
06 13.06 СЗ 4 50 км {ливн. осадки} 8/8 600 м
[Cb cap]
+7.2 -1.6 54 +4 +6 1022.4 1004.0
09 13.06 СЗ 4
{12}
50 км 4/4 600 м
[Cb cap]
+10.9 -1.1 43 +9 +15 1022.1 1004.0
12 13.06 СЗ 6-10
{10}
50 км 3/1 600 м
[Cu hum Cs]
+14.1 -2.6 31 +12 +16 1021.1 1003.2
15 13.06 СЗ 5
{12}
50 км 8/1 600 м
[Cu hum Cs]
+15.3 -3.1 28 +14 +15 1019.8 1002.0 +15.4 0.0
18 13.06 СЗ 2
{10}
50 км 9/0
[Ci]
+12.0 +1.3 48 +11 +11 1019.3 1001.3
21 13.06 З 1 20 км 6/0
[Ac trans Ci fib]
+8.5 +2.2 65 +8 +8 1018.8 1000.6
00 14.06 З 1 50 км 8/0
[Ac trans Ci fib]
+5.5 +1.9 78 +4 +5 1018.7 1000.4
03 14.06 З 1 50 км 9/3 1000 м
[Sc Ac cast Ci sp]
+10.2 +3.6 64 +10 +12 1017.4 999.4 +5.5
06 14.06 З 4 50 км {дождь} 10/5 600 м
[Sc Ac As]
+10.3 +4.1 65 +8 +9 1016.4 998.4
09 14.06 З 4 50 км 9/8 600 м
[Cb cap Ac cuf]
+14.0 +2.2 45 +13 +14 1014.6 996.8
12 14.06 С 3
{10}
50 км {ливн. осадки} 6/6 600 м
[Cu hum]
+14.8 +0.6 38 +14 +17 1013.0 995.3
15 14.06 С 2 20 км 6/4 600 м
[Cu hum Ac trans]
+14.6 -0.8 35 +15 +16 1011.5 993.9 +15.5 0.0
18 14.06 З 1 20 км 3/0
[Ac cast Cs]
+10.9 +1.5 52 +11 +11 1011.8 993.8
21 14.06 ЮЗ 1 20 км 3/0
[Cs]
+7.3 +2.3 71 +7 +7 1011.9 993.7
00 15.06 ЮЗ 1 20 км 6/3 600 м
[Cb cap Cs]
+5.4 +2.2 80 +4 +4 1011.9 993.6
03 15.06 ЮЗ 1 50 км 6/3 600 м
[Sc Ci fib]
+9.4 +3.8 68 +9 +11 1011.2 993.2 +5.3
06 15.06 З 3 20 км 10/3 600 м
[Sc Ac As]
+13.5 +3.9 52 +13 +14 1009.9 992.1
09 15.06 З 4 50 км 10/4 600 м
[Sc Ac As]
+15.6 +3.7 45 +15 +17 1008.6 991.0
12 15.06 З 2 50 км {дождь} 9/6 600 м
[Cu Sc As trans]
+15.4 +5.4 51 +15 +17 1007.3 989.7
15 15.06 С 4 50 км 9/6 600 м
[Cu Sc Ac As]
+14.3 +3.1 47 +13 +13 1006.6 989.0 +16.2 0.0
18 15.06 С 2
{10}
20 км 9/5 600 м
[Sc Ac cuf]
+10.4 +3.8 64 +9 +9 1008.1 990.2
21 15.06 штиль 0 20 км 8/3 600 м
[Sc Ac cast]
+5.9 +2.7 80 +5 +5 1009.2 991.0
00 16.06 С 1 20 км 8/3 600 м
[Sc Ac trans]
+4.9 +2.0 81 +4 +4 1009.1 990.9
03 16.06 С 3 50 км 8/0
[Ac As Ci fib]
+7.6 +2.3 69 +5 +7 1009.2 991.2 +4.2
06 16.06 С 4 50 км 9/6 1000 м
[Sc Ac trans Cc]
+9.9 +1.3 55 +8 +9 1010.1 991.8 +4.0
09 16.06 СЗ 3 50 км 9/5 1000 м
[Cu hum Cc]
+12.8 +0.4 43 +12 +17 1009.7 991.6
12 16.06 З 3 50 км 8/8 1000 м
[Cu Sc Ci fib]
+16.6 +1.9 37 +16 +18 1008.4 990.5
15 16.06 ЮЗ 4 50 км 5/3 1500 м
[Cu hum Ac trans Ci fib]
+16.2 +1.5 37 +16 +17 1018.3 1000.3 +17.1
18 16.06 Ю 2 50 км 4/0
[Ac trans]
+11.5 +4.0 60 +11 +11 1007.9 989.7
21 16.06 ЮЗ 2 20 км 9/0
[Ac As]
+11.5 +4.0 60 +11 +11 1006.1 987.9
00 17.06 ЮЗ 2 50 км {дождь} 8/5 600 м
[Sc Ac As]
+10.3 +7.8 84 +9 +9 1004.8 986.6
03 17.06 С 4 50 км 8/0
[Ac As]
+12.1 +8.0 76 +10 +11 1004.8 986.8 +9.9 0.4
06 17.06 С 6-10
{10}
50 км 3/3 600 м
[Cu hum Ci fib]
+13.0 +1.3 45 +11 +14 1006.4 988.3
09 17.06 СЗ 6
{12}
50 км 3/3 600 м
[Cu hum]
+13.8 -0.5 37 +12 +16 1008.0 989.9
12 17.06 С 5-10
{11}
50 км 3/3 600 м
[Cu hum]
+14.8 -0.5 35 +14 +17 1008.7 990.7
15 17.06 С 3 50 км 4/3 600 м
[Cb cap Ci fib]
+15.0 +0.9 38 +15 +16 1009.5 991.5 +15.9
18 17.06 З 1 50 км 3/0
[Ac trans]
+12.0 +4.0 58 +12 +12 1009.4 991.2
21 17.06 ЮЗ 1 20 км местами туман поземный 4/0
[Ci fib]
+7.8 +3.0 72 +7 +7 1009.8 991.4
00 18.06 Ю 1 50 км местами туман поземный 1/0
[Ci fib]
+5.6 +3.2 85 +4 +5 1009.5 990.9
03 18.06 ЮЗ 2 50 км 3/0
[Ci fib]
+11.1 +4.5 64 +10 +13 1009.6 991.4 +0.5
06 18.06 ЮЗ 2 50 км 3/1 600 м
[Cu hum Ci fib]
+17.9 +5.6 44 +18 +28 1008.2 990.4
09 18.06 З 4 50 км 5/3 600 м
[Cu hum Ci fib]
+21.4 +6.2 37 +22 +28 комфорт 1006.8 989.2
12 18.06 З 3 50 км 6/3 600 м
[Cu hum Ci fib]
+23.7 +5.6 31 +24 +28 комфорт 1006.1 988.6
15 18.06 З 2 50 км 9/3 600 м
[Cb cap Ac trans Cs]
+22.5 +8.6 41 +24 +25 комфорт 1005.4 987.9 +24.3
18 18.06 З 1
{11}
20 км в посл. час ливневой дождь 10/8 600 м
[Cb cap Ac As]
+16.6 +13.6 82 +17 +17 1006.2 988.4

 

Местоположение метеостанции Объячево (Коми, Россия): широта 60.37 долгота 49.65 высота над уровнем моря 152 м.

В архиве по умолчанию представлена погода в Объячеве за последнюю неделю. Архивные данные за месяц целиком и за предыдущие месяцы, начиная с января 2011 года, Вы можете получить, выбрав интересующий диапазон дат из раскрывающегося списка и нажав кнопку "Ввод!".


*Определитесь, кто Вы:
робот инопланетянин человек

Внимание! Время в таблицах - всемирное. Для получения местного времени необходимо прибавить поправку, которая равна 3 ч.

Смотрите также архив погоды в соседних городах и на ближайших метеорологических станциях:

Погода в Койгородке (Коми, Россия) (73 км)
Погода в Пустоши (Коми, Россия) (90 км)
Погода в Опарино (Кировская область, Россия) (95 км)
Погода в Лальске (Кировская область, Россия) (118 км)
Погода в Вилегодском (Архангельская область, Россия) (124 км)
Погода в Нагорске (Кировская область, Россия) (134 км)
Погода в Сыктывкаре (Коми, Россия) (158 км)
Погода в Усть-Черной (Пермский край, Россия) (164 км)
Погода в Слободчиково (Архангельская область, Россия) (171 км)
Погода в Белой Холунице (Кировская область, Россия) (184 км)

Пояснения к столбцам:

Ветер - указаны скорость ветра в м/с - средняя за 10 мин, порывы в срок и между сроками (в фигурных скобках) и направление, откуда дует ветер: С - северный, СВ - северо-восточный, В - восточный, ЮВ - юго-восточный, Ю - южный, ЮЗ - юго-западный, З - западный, СЗ - северо-западный.
Видимость - горизонтальная дальность видимости в метрах или километрах. При видимости от 1 до 10 км при отсутствии осадков обычно наблюдается дымка, при ухудшении видимости до 1 км и менее - туман. В сухую погоду видимость может ухудшаться дымом, пылью или мглою.
Явления - указаны атмосферные явления, наблюдавшиеся в срок или в последний час перед сроком; фигурными скобками обозначены явления, наблюдавшиеся между сроками (за 1-3 часа до срока); квадратными скобками обозначены град или гололедные отложения с указанием их диаметра в мм.
Облачность - указаны через наклонную черту общая и нижняя облачность в баллах и высота нижней границы облаков в метрах; квадратными скобками обозначены формы облаков: Ci - перистые, Cs - перисто-слоистые, Cc - перисто-кучевые, Ac - высококучевые, As - высокослоистые, Sc - слоисто-кучевые, Ns - слоисто-дождевые, Cu - кучевые, Cb - кучево-дождевые. Подробнее классификацию облаков см. в Атласе облаков (PDF).
T - Температура воздуха - температура, измеренная на высоте 2 м над землей.
Td - Температура точки росы - температура, при понижении до которой содержащийся в воздухе водяной пар достигнет насыщения.
f - Относительная влажность воздуха - влажноcть воздуха, измеренная на высоте 2 м над землей.
Te - Эффективная температура - температура, которую ощущает одетый по сезону человек в тени. Характеристика душности погоды. При расчете учитывается влияние влажности воздуха и скорости ветра на теплоощущения человека.
Tes - Эффективная температура на солнце - температура, которую ощущает человек, с поправкой на солнечный нагрев. Характеристика знойности погоды. Зависит от высоты солнца над горизонтом, облачности и скорости ветра. Ночью, в пасмурную погоду, а также при ветре 12 м/с и более поправка равна нулю.
P - Атмосферное давление - приведенное к уровню моря атмосферное давление.
Po - Атмосферное давление - измеренное на уровне метеостанции атмосферное давление.
Tmin - Минимальная температура - минимум температуры воздуха на высоте 2 м над землей.
Tmax - Максимальная температура - максимум температуры воздуха на высоте 2 м над землей.
R - Количество осадков - Количество выпавших осадков за период времени, мм. При наведении курсора мыши на число - период времени, за который выпало указанное количество осадков.
R24 - Количество осадков - Количество выпавших осадков за 24 часа, мм.
S - Снежный покров - Высота снежного покрова, см. При наведении курсора мыши на число - состояние снежного покрова и степень покрытия местности в баллах.